Weather History for Meadville, PA

Change the Weather History Date:

Thursday, June 13, 2013

  Actual Average Record
Temperature  
Mean Temperature 62 °F -  
Max Temperature 66 °F 77 °F 90 °F (1967)
Min Temperature 55 °F 51 °F 37 °F (1980)
Degree Days  
Heating Degree Days 4    
Growing Degree Days 12 (Base 50)    
Moisture  
Dew Point 56 °F    
Average Humidity 83    
Maximum Humidity 93    
Minimum Humidity 70    
Precipitation  
Precipitation 0.02 in - - ()
Sea Level Pressure  
Sea Level Pressure 29.68 in    
Wind  
Wind Speed 10 mph (NNW)    
Max Wind Speed 16 mph    
Max Gust Speed 23 mph    
Visibility 9 miles    
Events Rain    
Averages and records for this station are not official NWS values.
T = Trace of Precipitation, MM = Missing Value Source: NWS Daily Summary

Daily Weather History Graph

Daily Weather History Graph

Search for Another Location

Airport:

Trip Planner

Search our weather history database for the weather conditions in past years. The results will help you decide how hot, cold, wet, or windy it might be!

Date:

Astronomy

Jun. 13, 2013 Rise Set
Actual Time 5:45 AM EDT 8:56 PM EDT
Civil Twilight 5:11 AM EDT 9:30 PM EDT
Nautical Twilight 4:28 AM EDT 10:13 PM EDT
Astronomical Twilight 3:36 AM EDT 11:06 PM EDT
Moon 10:24 AM EDT (6/13) 11:58 PM EDT (6/13)
Length of Visible Light 16h 18m
Length of Day
15h 10m
Waxing Crescent, 21% of the Moon is Illuminated
Jun 13
Waxing Crescent
Jun 16
First Quarter
Jun 23
Full
Jun 30
Last Quarter
Jul 8
New

Hourly Weather History & Observations

Time (EDT) Temp. Dew Point Humidity Pressure Visibility Wind Dir Wind Speed Gust Speed Precip Events Conditions
12:53 AM - - N/A% 29.75 in - North - - N/A   Unknown
1:53 AM - - N/A% 29.70 in - North - - N/A   Unknown
2:53 AM - - N/A% 29.65 in - North - - N/A   Unknown
3:53 AM - - N/A% 29.62 in - North - - N/A   Unknown
4:53 AM - - N/A% 29.52 in - North - - N/A   Unknown
5:53 AM - - N/A% 29.53 in - North - - N/A   Unknown
6:53 AM - - N/A% 29.50 in - North - - N/A   Unknown
8:53 AM - - N/A% 29.50 in - North - - N/A   Unknown
9:53 AM - - N/A% 29.55 in - North - - N/A   Unknown
10:53 AM - - N/A% 29.60 in - North - - N/A   Unknown
11:53 AM - - N/A% 29.62 in - North - - N/A   Unknown
12:53 PM - - N/A% 29.65 in - North - - N/A   Unknown
1:41 PM 60.8 °F 57.2 °F 88% 29.67 in 7.0 mi NNW 10.4 mph 18.4 mph N/A   Overcast
1:53 PM 60.1 °F 57.9 °F 93% 29.67 in 4.0 mi North 9.2 mph 18.4 mph N/A   Overcast
2:53 PM 60.1 °F 57.9 °F 93% 29.70 in 3.0 mi NNW 13.8 mph 19.6 mph 0.00 in Rain Light Rain
3:53 PM 61.0 °F 57.9 °F 90% 29.72 in 10.0 mi North 10.4 mph 18.4 mph 0.01 in   Overcast
4:22 PM 64.4 °F 59.0 °F 83% 29.71 in 10.0 mi North 12.7 mph 20.7 mph N/A   Scattered Clouds
4:29 PM 64.4 °F 59.0 °F 83% 29.72 in 10.0 mi North 9.2 mph 18.4 mph N/A   Mostly Cloudy
4:53 PM 66.9 °F 57.0 °F 70% 29.73 in 10.0 mi NNW 16.1 mph 23.0 mph N/A   Overcast
5:30 PM 64.4 °F 55.4 °F 73% 29.73 in 10.0 mi North 11.5 mph 19.6 mph 0.01 in   Mostly Cloudy
5:53 PM 66.0 °F 55.9 °F 70% 29.73 in 10.0 mi North 8.1 mph 23.0 mph 0.01 in   Scattered Clouds
6:53 PM 62.1 °F 55.0 °F 78% 29.75 in 10.0 mi NNW 8.1 mph - N/A   Overcast
7:53 PM 61.0 °F 54.0 °F 78% 29.79 in 10.0 mi NW 5.8 mph - N/A   Mostly Cloudy
8:53 PM 60.1 °F 54.0 °F 80% 29.81 in 10.0 mi NNW 6.9 mph - 0.00 in Rain Light Rain
9:53 PM 57.9 °F 54.0 °F 87% 29.83 in 10.0 mi NNW 4.6 mph - 0.00 in   Overcast
10:53 PM 57.0 °F 53.1 °F 87% 29.84 in 10.0 mi NNW 5.8 mph - N/A   Scattered Clouds
11:53 PM 55.9 °F 53.1 °F 90% 29.84 in 10.0 mi NW 3.5 mph - N/A   Overcast